Location: Camerons Lookout
(40.9833°S, 175.9333°E)
Time: 00:01:02
(UTC+00:00)

Cosmos 1400 Rocket - Pass Details

Date: 14 January 2026
Orbit: 476 x 509 km, 81.1° (Epoch: 16 February)

Event Time Altitude Azimuth Distance (km) Brightness Sun altitude
Exits shadow 10:08:16 62° 64° (ENE) 584 2.6 -20.1°
Maximum altitude 10:08:28 63° 83° (E) 578 2.6 -20.1°
Drops below altitude 10° 10:12:16 10° 164° (SSE) 1,745 5.9 -20.5°
Sets 10:14:25 0° 167° (SSE) 2,633 7.0 -20.7°
